This is the latest recevied weather packets stored in our database for station/object KB9MLJ. If no packets are shown the sender has not sent any weather packets the latest 10 day(s).
| Time | Temp. | Humidity | Pressure | Rain* | Wind** | Luminosity | Snow |
|---|---|---|---|---|---|---|---|
| 1777905346 | 20° C | 63% | 1003.7 hPa | 0 mm | - | 663 W/m² | - |
| 1777905044 | 20.56° C | 63% | 1004 hPa | 0 mm | - | 635 W/m² | - |
| 1777904741 | 19.44° C | 64% | 1003.7 hPa | 0 mm | - | 638 W/m² | - |
| 1777904438 | 19.44° C | 65% | 1004 hPa | 0 mm | - | 597 W/m² | - |
| 1777904135 | 18.89° C | 67% | 1004 hPa | 0 mm | - | 594 W/m² | - |
| 1777903832 | 18.33° C | 68% | 1004 hPa | 0 mm | - | 568 W/m² | - |
| 1777903528 | 18.33° C | 69% | 1004.3 hPa | 0 mm | - | 521 W/m² | - |
| 1777903225 | 18.33° C | 68% | 1004.3 hPa | 0 mm | - | 495 W/m² | - |
| 1777902921 | 17.78° C | 69% | 1004.3 hPa | 0 mm | - | 489 W/m² | - |
| 1777902618 | 17.22° C | 69% | 1004.7 hPa | 0 mm | - | 433 W/m² | - |
| 1777902315 | 16.67° C | 71% | 1004.7 hPa | 0 mm | - | 418 W/m² | - |
| 1777902012 | 16.67° C | 71% | 1004.3 hPa | 0 mm | - | 391 W/m² | - |
| 1777901711 | 16.67° C | 72% | 1004.3 hPa | 0 mm | - | 357 W/m² | - |
| 1777901408 | 16.67° C | 72% | 1004.7 hPa | 0 mm | - | 347 W/m² | - |
| 1777901105 | 16.11° C | 73% | 1004.7 hPa | 0 mm | - | 321 W/m² | - |
| 1777900803 | 15.56° C | 74% | 1004.7 hPa | 0 mm | - | 317 W/m² | - |
| 1777900500 | 15.56° C | 74% | 1005 hPa | 0 mm | - | 287 W/m² | - |
| 1777900196 | 15° C | 74% | 1004.7 hPa | 0 mm | - | 264 W/m² | - |
| 1777899893 | 15° C | 75% | 1004.7 hPa | 0 mm | - | 264 W/m² | - |
| 1777899589 | 14.44° C | 76% | 1004.7 hPa | 0 mm | - | 224 W/m² | - |
| 1777899287 | 14.44° C | 77% | 1005 hPa | 0 mm | - | 231 W/m² | - |
| 1777898985 | 13.89° C | 79% | 1005 hPa | 0 mm | - | 204 W/m² | - |
| 1777898682 | 13.89° C | 79% | 1004.7 hPa | 0 mm | - | 191 W/m² | - |
| 1777898378 | 13.33° C | 80% | 1005 hPa | 0 mm | - | 182 W/m² | - |
| 1777898077 | 12.78° C | 82% | 1005 hPa | 0 mm | - | 157 W/m² | - |
* Rain latest hour (hover to see other rain measurements)
** Current wind speed in m/s (hover to see current wind gust speed)